Precipitable_Water
0.27 0.24 0.23 0.21 0.21 0.21 0.19 0.20 0.17 0.16 0.21 0.24 0.32 0.42 0.54 0.65 0.70 0.71 0.81 0.80 0.84 0.84 0.89 0.96 1.00 1.04 1.05 1.00 0.83 0.84 0.84 0.84 0.85 0.89 0.90 0.90 0.90 0.92 0.96 0.98 0.99 1.01 1.01 1.02
0.20 0.21 0.20 0.16 0.16 0.18 0.22 0.22 0.21 0.22 0.21 0.40 0.45 0.54 0.60 0.65 0.67 0.72 0.79 0.79 0.82 0.84 0.88 0.91 0.96 1.02 1.03 1.01 0.94 0.96 0.95 0.93 0.96 0.98 0.96 0.95 0.95 0.95 0.96 0.95 0.95 0.95 0.95 0.96
0.16 0.18 0.15 0.10 0.17 0.18 0.21 0.25 0.27 0.17 0.24 0.36 0.45 0.55 0.61 0.64 0.69 0.72 0.77 0.78 0.81 0.83 0.85 0.90 0.95 1.01 1.02 1.03 1.02 0.98 0.96 0.95 0.98 1.02 1.02 1.03 1.06 1.06 1.04 1.03 1.05 1.03 1.03 1.03
0.16 0.17 0.08 0.19 0.24 0.27 0.23 0.24 0.27 0.30 0.36 0.43 0.51 0.59 0.63 0.68 0.71 0.73 0.77 0.78 0.81 0.84 0.86 0.90 0.97 1.03 1.02 1.05 1.09 1.06 1.04 1.03 1.03 1.03 1.04 1.06 1.08 1.09 1.10 1.11 1.09 1.09 1.08 1.11
0.14 0.13 0.13 0.20 0.29 0.24 0.22 0.22 0.37 0.38 0.41 0.46 0.53 0.60 0.58 0.68 0.73 0.74 0.77 0.77 0.82 0.85 0.88 0.91 0.95 0.99 1.02 1.01 1.03 1.00 0.97 0.99 0.99 1.01 1.01 1.02 1.02 1.03 1.06 1.06 1.05 1.05 1.05 1.04
0.17 0.11 0.08 0.14 0.24 0.32 0.35 0.25 0.41 0.41 0.42 0.53 0.58 0.47 0.51 0.64 0.69 0.71 0.75 0.78 0.79 0.84 0.88 0.90 0.91 0.95 0.97 0.98 0.96 0.94 0.96 0.94 0.94 0.94 0.92 0.92 0.94 0.94 0.96 0.99 1.00 1.00 1.00 1.01
0.16 0.15 0.16 0.28 0.34 0.38 0.23 0.28 0.44 0.44 0.48 0.56 0.51 0.55 0.59 0.63 0.66 0.70 0.72 0.75 0.74 0.80 0.81 0.83 0.87 0.91 0.89 0.87 0.86 0.87 0.89 0.88 0.88 0.88 0.88 0.88 0.89 0.90 0.90 0.89 0.89 0.88 0.90 0.89
0.20 0.17 0.14 0.38 0.37 0.27 0.41 0.48 0.48 0.49 0.51 0.52 0.55 0.56 0.59 0.61 0.63 0.65 0.67 0.69 0.73 0.72 0.73 0.78 0.83 0.83 0.81 0.78 0.79 0.80 0.79 0.75 0.75 0.76 0.74 0.73 0.71 0.72 0.73 0.74 0.74 0.74 0.74 0.75
0.29 0.27 0.39 0.43 0.40 0.41 0.50 0.49 0.51 0.51 0.52 0.53 0.53 0.53 0.56 0.57 0.59 0.61 0.63 0.66 0.68 0.70 0.71 0.73 0.76 0.78 0.76 0.75 0.76 0.76 0.75 0.74 0.73 0.72 0.68 0.65 0.62 0.59 0.58 0.58 0.56 0.55 0.54 0.52
0.32 0.36 0.38 0.41 0.42 0.43 0.48 0.50 0.52 0.53 0.52 0.53 0.51 0.52 0.53 0.55 0.56 0.58 0.59 0.60 0.62 0.65 0.66 0.67 0.70 0.71 0.71 0.71 0.71 0.70 0.67 0.63 0.60 0.56 0.54 0.53 0.52 0.51 0.49 0.48 0.46 0.46 0.44 0.44
0.33 0.37 0.39 0.39 0.41 0.43 0.46 0.50 0.51 0.52 0.52 0.51 0.51 0.51 0.52 0.52 0.53 0.54 0.56 0.56 0.56 0.54 0.54 0.55 0.57 0.59 0.61 0.62 0.63 0.61 0.59 0.56 0.54 0.52 0.49 0.48 0.48 0.47 0.46 0.47 0.46 0.44 0.44 0.43
0.28 0.37 0.37 0.37 0.41 0.44 0.45 0.46 0.48 0.48 0.48 0.50 0.50 0.50 0.51 0.50 0.51 0.51 0.51 0.52 0.52 0.52 0.52 0.52 0.53 0.53 0.54 0.54 0.53 0.51 0.49 0.49 0.48 0.47 0.46 0.45 0.44 0.43 0.45 0.44 0.44 0.43 0.42 0.41
0.37 0.42 0.42 0.42 0.43 0.44 0.44 0.45 0.47 0.47 0.46 0.43 0.43 0.43 0.43 0.44 0.45 0.46 0.46 0.46 0.46 0.45 0.45 0.45 0.45 0.45 0.46 0.47 0.47 0.46 0.44 0.42 0.41 0.40 0.39 0.37 0.36 0.35 0.33 0.35 0.37 0.37 0.36 0.36
0.44 0.44 0.39 0.42 0.40 0.44 0.45 0.45 0.46 0.45 0.45 0.43 0.42 0.42 0.41 0.41 0.41 0.41 0.40 0.41 0.41 0.40 0.40 0.40 0.40 0.40 0.42 0.42 0.41 0.39 0.39 0.39 0.38 0.38 0.37 0.36 0.35 0.34 0.34 0.33 0.31 0.32 0.34 0.34
0.42 0.44 0.42 0.43 0.42 0.41 0.42 0.42 0.41 0.40 0.40 0.40 0.41 0.40 0.39 0.38 0.38 0.38 0.39 0.39 0.38 0.38 0.37 0.37 0.36 0.37 0.39 0.39 0.38 0.37 0.36 0.36 0.36 0.35 0.35 0.34 0.34 0.33 0.32 0.31 0.31 0.31 0.31 0.32
0.40 0.39 0.38 0.36 0.35 0.35 0.35 0.35 0.34 0.34 0.35 0.35 0.34 0.34 0.35 0.35 0.34 0.35 0.35 0.35 0.34 0.33 0.34 0.34 0.34 0.35 0.36 0.36 0.35 0.35 0.34 0.34 0.33 0.33 0.32 0.32 0.31 0.30 0.30 0.29 0.28 0.27 0.26 0.26
0.32 0.30 0.31 0.29 0.29 0.30 0.30 0.31 0.31 0.31 0.32 0.32 0.32 0.33 0.33 0.32 0.31 0.31 0.30 0.31 0.30 0.29 0.29 0.28 0.28 0.29 0.29 0.29 0.28 0.28 0.27 0.27 0.27 0.27 0.26 0.26 0.25 0.24 0.23 0.21 0.20 0.18 0.17 0.16
0.32 0.31 0.31 0.30 0.29 0.28 0.28 0.29 0.28 0.28 0.28 0.28 0.28 0.27 0.26 0.25 0.24 0.24 0.23 0.23 0.22 0.21 0.20 0.20 0.21 0.21 0.21 0.21 0.21 0.22 0.21 0.21 0.21 0.20 0.20 0.19 0.18 0.17 0.16 0.15 0.14 0.13 0.13 0.13
0.31 0.29 0.29 0.28 0.28 0.27 0.26 0.26 0.26 0.26 0.25 0.25 0.23 0.21 0.20 0.18 0.16 0.15 0.15 0.15 0.14 0.14 0.15 0.16 0.16 0.16 0.16 0.17 0.17 0.17 0.17 0.17 0.16 0.16 0.15 0.15 0.14 0.14 0.13 0.13 0.12 0.12 0.12 0.11
0.28 0.28 0.27 0.27 0.26 0.25 0.24 0.24 0.24 0.22 0.20 0.18 0.16 0.15 0.14 0.14 0.13 0.13 0.13 0.12 0.12 0.13 0.13 0.13 0.13 0.13 0.13 0.14 0.14 0.14 0.13 0.13 0.13 0.13 0.13 0.12 0.12 0.12 0.12 0.11 0.11 0.11 0.11 0.10
0.26 0.26 0.25 0.25 0.24 0.24 0.23 0.21 0.19 0.17 0.16 0.15 0.13 0.12 0.11 0.12 0.11 0.11 0.10 0.10 0.11 0.12 0.12 0.11 0.11 0.11 0.11 0.11 0.11 0.11 0.11 0.11 0.11 0.11 0.11 0.10 0.10 0.10 0.10 0.10 0.10 0.09 0.09 0.09
0.26 0.26 0.25 0.24 0.20 0.18 0.17 0.16 0.15 0.14 0.14 0.13 0.13 0.12 0.11 0.11 0.10 0.10 0.10 0.10 0.11 0.10 0.10 0.10 0.10 0.10 0.10 0.10 0.10 0.10 0.09 0.09 0.09 0.09 0.09 0.09 0.08 0.08 0.08 0.08 0.08 0.07 0.07 0.07
0.25 0.22 0.20 0.18 0.16 0.15 0.16 0.16 0.16 0.15 0.13 0.12 0.12 0.12 0.11 0.11 0.10 0.08 0.08 0.09 0.10 0.09 0.09 0.09 0.08 0.08 0.08 0.08 0.08 0.08 0.08 0.08 0.08 0.08 0.08 0.07 0.07 0.07 0.07 0.07 0.07 0.07 0.07 0.07
0.19 0.18 0.17 0.18 0.18 0.17 0.15 0.15 0.14 0.14 0.13 0.12 0.12 0.11 0.10 0.09 0.09 0.10 0.09 0.09 0.09 0.09 0.08 0.09 0.09 0.08 0.08 0.08 0.08 0.07 0.07 0.07 0.07 0.07 0.07 0.07 0.07 0.07 0.07 0.07 0.07 0.07 0.07 0.06
0.18 0.18 0.18 0.17 0.16 0.15 0.14 0.14 0.13 0.12 0.12 0.12 0.11 0.11 0.11 0.10 0.09 0.09 0.09 0.09 0.09 0.09 0.09 0.09 0.08 0.08 0.08 0.08 0.08 0.08 0.08 0.08 0.08 0.07 0.07 0.07 0.07 0.07 0.07 0.07 0.07 0.07 0.07 0.06
0.19 0.18 0.17 0.17 0.15 0.14 0.13 0.13 0.11 0.11 0.11 0.10 0.10 0.10 0.10 0.10 0.09 0.09 0.09 0.09 0.09 0.09 0.09 0.09 0.09 0.09 0.09 0.08 0.08 0.08 0.08 0.08 0.08 0.08 0.08 0.08 0.07 0.07 0.07 0.07 0.07 0.07 0.07 0.07
0.18 0.17 0.15 0.14 0.14 0.13 0.12 0.10 0.09 0.09 0.09 0.09 0.09 0.10 0.10 0.10 0.09 0.09 0.09 0.09 0.09 0.09 0.09 0.10 0.09 0.09 0.09 0.09 0.09 0.08 0.08 0.08 0.08 0.08 0.08 0.08 0.08 0.08 0.07 0.07 0.07 0.07 0.07 0.07
Wind_Speed
9 10 11 11 13 14 16 18 17 19 21 21 21 19 14 10 9 7 9 9 10 13 17 19 20 19 19 19 19 17 16 16 14 12 11 10 10 10 11 12 12 13 13 14
9 9 11 13 16 16 16 16 19 21 21 18 16 17 12 10 9 9 10 12 12 14 16 17 17 17 16 17 19 18 16 15 15 14 13 12 12 12 12 12 13 14 15 15
8 8 11 11 9 12 15 16 17 19 19 20 16 10 9 10 10 11 12 13 14 15 16 17 16 16 16 16 17 17 15 14 13 13 12 12 13 13 14 14 15 16 16 17
8 9 8 7 11 10 13 17 17 19 20 18 14 12 9 10 11 10 14 15 15 16 16 16 17 17 16 16 15 15 15 14 13 13 13 12 13 13 14 14 14 15 16 18
8 9 11 7 7 9 12 17 14 18 22 22 16 12 9 10 9 9 10 17 15 16 16 17 17 16 16 15 14 15 15 14 13 13 13 12 12 13 14 15 15 16 17 18
8 8 8 6 11 13 13 10 16 18 19 19 19 15 13 12 11 11 7 11 15 15 15 15 15 15 16 15 13 12 13 12 12 11 11 11 11 12 13 15 15 16 17 19
8 8 9 8 10 9 5 8 11 12 9 1 9 13 13 13 12 10 9 10 12 15 14 13 13 13 13 15 12 12 12 11 11 11 11 12 13 14 15 15 17 18 18 19
7 7 6 7 5 4 4 3 6 7 7 6 10 11 11 12 11 10 9 8 10 13 12 12 12 12 13 10 10 11 11 10 10 11 12 12 11 12 13 14 14 16 17 19
6 5 3 4 3 4 2 2 2 4 6 8 9 9 10 10 9 9 7 8 8 7 8 10 10 12 13 14 13 12 12 12 12 12 13 13 13 14 14 15 16 17 18 19
6 3 2 3 2 1 1 1 3 5 6 7 8 7 6 6 6 7 6 6 7 7 6 7 8 11 15 15 13 14 13 13 12 13 13 13 14 15 16 17 17 18 18 19
3 5 2 3 2 1 2 3 4 4 5 5 6 6 5 4 4 4 5 6 6 6 6 6 7 8 8 10 11 12 12 12 13 12 12 12 13 15 15 16 18 19 19 20
2 2 2 1 2 3 4 2 2 3 5 5 4 4 4 4 2 2 2 3 4 3 3 5 6 7 9 10 11 12 12 13 14 14 15 16 16 15 15 16 17 18 19 21
4 6 6 6 4 3 3 2 2 2 2 2 3 3 3 2 2 2 1 1 2 3 4 5 6 6 7 8 9 10 12 13 14 15 16 17 18 19 20 20 19 20 21 22
4 6 5 6 3 3 3 2 2 2 1 1 1 1 1 1 1 2 3 4 4 4 5 6 7 8 9 10 11 12 13 14 16 17 18 19 20 21 22 22 23 24 24 24
5 5 5 4 4 3 2 2 2 2 2 2 2 2 3 3 4 5 6 7 7 8 9 10 10 12 13 13 14 15 16 17 18 19 20 21 22 22 23 24 24 25 26 27
3 2 1 2 2 3 3 3 3 3 3 3 3 4 5 5 6 7 8 9 10 11 12 13 14 15 16 17 17 18 19 19 20 21 22 23 24 24 25 26 26 27 28 29
1 1 2 3 3 4 4 4 4 4 4 5 6 7 7 8 9 10 11 12 13 14 15 16 17 18 19 20 21 21 22 23 23 24 25 25 26 27 27 28 28 29 29 30
2 2 3 3 3 3 4 4 5 5 5 6 7 8 9 10 11 13 14 14 15 16 17 19 20 20 21 22 22 23 24 24 25 25 26 26 27 27 27 28 28 28 29 29
2 3 3 4 4 4 4 5 5 6 7 8 9 10 11 12 14 15 16 17 18 19 21 22 22 23 23 24 25 25 25 26 26 27 27 28 28 28 29 29 29 30 30 30
2 3 3 4 4 4 5 6 6 8 9 10 12 13 15 17 18 19 20 20 22 23 25 25 26 26 27 27 27 28 28 28 29 29 29 29 30 30 30 30 31 31 31 31
3 3 4 4 5 6 7 8 9 10 12 13 15 17 18 19 21 22 23 24 25 26 27 27 28 28 28 29 29 29 29 29 29 30 30 30 30 31 31 31 32 32 32 33
3 4 5 6 7 8 10 11 12 14 15 17 19 20 22 23 24 25 26 27 28 29 29 29 29 30 30 30 30 30 30 30 31 31 31 31 32 32 32 33 33 33 33 34
3 4 6 8 10 12 14 16 17 19 20 22 23 24 26 27 28 29 29 29 30 30 30 31 31 31 31 31 31 31 31 32 32 32 32 32 32 32 32 32 33 33 33 33
6 8 10 12 15 17 19 20 22 23 25 26 27 28 29 29 30 30 30 30 31 31 31 31 31 31 31 31 31 31 31 31 30 30 30 30 30 30 30 31 30 30 30 31
10 12 15 17 19 21 23 24 26 27 28 28 29 29 30 30 30 30 29 29 30 30 30 29 29 29 29 29 29 28 28 28 28 27 27 27 27 27 27 27 27 27 27 27
14 16 19 21 23 24 26 27 28 29 29 29 29 29 28 28 27 27 27 27 27 26 26 26 26 26 26 25 25 25 25 25 25 25 25 25 25 25 24 24 24 24 24 24
17 19 21 23 25 26 28 28 28 27 27 27 27 26 26 26 25 25 25 25 24 25 25 24 24 24 24 24 23 23 23 23 23 23 23 24 24 23 23 23 23 23 24 24
Wind_Direction
213 217 226 235 241 245 249 256 257 271 275 284 287 283 268 256 246 235 209 206 193 188 184 185 189 194 199 201 199 200 201 203 205 206 205 204 203 205 207 209 213 216 219 223
227 232 232 247 252 254 255 258 261 270 278 279 283 279 246 240 233 219 204 205 197 190 188 190 193 197 198 201 201 203 206 209 212 214 215 217 219 220 221 223 225 228 232 236
227 251 266 252 250 260 259 267 273 277 281 289 279 263 244 234 221 210 206 206 201 197 196 197 198 198 196 198 200 202 205 211 215 216 218 223 227 230 233 236 237 239 242 244
246 261 244 240 279 267 266 276 285 286 287 280 258 236 234 231 207 202 204 203 201 201 200 201 201 198 199 201 198 201 206 211 218 221 224 229 233 237 241 243 245 247 251 252
250 257 267 260 274 282 290 289 298 292 290 274 228 214 220 209 202 189 189 198 197 200 201 200 200 204 206 201 201 214 220 216 218 222 226 234 240 246 246 246 249 253 256 258
261 268 266 267 290 291 283 271 312 307 299 273 210 218 215 207 197 189 193 182 192 191 191 195 201 204 206 201 212 208 203 211 218 223 229 235 244 251 253 252 252 254 260 264
260 263 264 298 301 294 274 299 321 332 330 115 197 198 192 191 193 192 193 184 184 191 197 203 200 204 213 210 199 199 206 215 225 232 239 248 253 257 258 257 255 261 265 271
249 246 255 315 292 312 279 299 348 8 25 107 142 157 171 176 181 183 187 181 186 189 190 200 204 206 197 196 207 205 211 222 233 241 246 254 258 262 264 263 265 267 269 271
264 252 275 312 306 304 297 311 11 49 73 94 125 137 148 164 177 184 183 187 195 194 193 193 202 217 222 222 228 227 228 237 246 249 252 260 264 267 270 271 271 272 273 275
252 249 286 308 319 324 261 81 76 80 89 97 106 128 148 159 180 190 188 195 202 210 221 229 231 233 232 226 237 237 241 242 250 255 259 264 267 269 271 273 274 274 275 277
201 184 237 337 334 175 142 139 93 82 96 95 99 102 118 143 168 184 200 211 215 219 226 236 245 247 241 244 243 240 243 243 255 257 260 266 270 273 275 278 277 276 277 277
209 239 127 94 123 144 137 106 85 108 96 77 77 91 97 104 121 155 184 215 222 231 239 247 257 262 259 258 253 253 256 258 260 262 265 267 269 274 283 282 283 283 282 280
139 106 112 117 103 121 125 107 89 121 93 58 58 68 78 93 100 103 148 239 260 267 268 270 271 278 275 271 266 265 264 264 266 268 269 271 272 274 276 281 284 286 286 286
141 136 98 83 95 101 96 92 89 86 33 358 8 18 12 348 306 297 289 282 282 286 288 285 283 285 283 279 276 274 272 274 273 274 275 276 277 278 279 279 281 282 286 287
92 106 107 91 71 61 51 52 36 12 344 327 305 300 297 297 302 301 298 296 292 292 292 292 292 292 289 286 284 283 281 280 279 279 279 279 279 281 281 282 282 282 283 285
108 106 111 352 348 349 350 348 352 331 314 309 314 308 302 298 295 295 296 297 294 295 296 295 294 292 290 287 285 284 283 282 281 281 281 281 281 282 282 283 283 284 285 286
234 342 330 327 331 332 333 325 320 311 302 299 298 295 295 296 297 296 296 295 294 294 293 293 292 292 290 289 287 285 284 284 284 283 283 283 283 283 283 283 283 285 286 287
16 356 344 333 330 330 332 331 326 319 312 305 303 302 301 300 299 298 298 296 297 298 299 297 295 293 292 291 289 287 286 285 285 284 284 284 284 284 284 284 285 285 286 287
355 359 349 345 337 329 325 325 321 313 309 306 304 304 302 300 298 297 296 296 297 296 297 296 295 294 293 291 289 288 286 286 285 285 284 284 285 284 284 285 285 286 286 286
346 341 340 339 330 323 318 311 310 308 306 304 301 300 300 299 297 296 296 297 296 294 293 294 293 292 291 291 289 287 286 285 285 284 284 284 284 283 283 284 284 284 284 285
313 322 326 327 322 318 313 308 305 305 304 303 303 301 300 299 298 296 295 294 295 294 294 294 293 291 291 289 289 287 286 285 285 284 284 283 283 283 283 283 283 284 284 284
311 313 315 316 316 315 312 310 308 306 304 304 303 302 300 299 298 297 295 294 293 293 292 292 292 291 290 289 288 287 286 286 285 284 284 284 283 283 283 284 284 284 284 284
308 313 314 314 313 311 308 307 305 303 302 302 301 301 301 300 298 296 294 294 293 292 292 291 291 290 290 289 288 288 287 286 286 285 284 284 284 284 284 284 284 284 284 284
310 313 313 313 312 312 310 308 306 304 303 302 301 300 301 300 298 297 295 294 293 293 292 292 291 290 289 289 289 288 288 287 286 285 284 284 284 284 285 285 285 285 285 286
314 314 313 313 313 311 309 308 306 305 303 302 301 301 301 300 299 297 296 294 293 293 293 292 292 291 290 290 289 289 289 288 287 286 286 285 285 286 286 286 286 286 287 288
315 315 315 314 314 314 313 310 308 306 304 302 301 301 302 301 300 299 298 298 297 295 295 295 294 293 292 291 291 290 290 289 288 287 286 287 287 287 288 289 288 288 288 289
320 319 318 318 317 316 315 314 312 310 309 306 303 302 302 301 301 300 300 300 299 298 297 296 295 294 293 292 292 292 293 292 290 288 288 287 287 287 288 289 289 289 289 289